Regional Weather Roundup
Issued by NWS

Home | Current Version | Previous Version | Graphics & Text | Print | Product List | Glossary Off
Versions: 1 2 3 4 5 6 7 8 9 10 11 12 13 14 15 16 17 18 19 20 21 22 23 24 25 26 27 28 29 30 31 32 33 34 35 36 37 38 39 40 41 42 43 44 45 46 47 48 49 50

000
ASUS43 KTOP 011908
RWRKS

WEATHER ROUNDUP FOR KANSAS
NATIONAL WEATHER SERVICE GOODLAND KS
200 PM CDT TUE SEP 01 2015

NOTE:  "FAIR" INDICATES FEW OR NO CLOUDS BELOW 12,000 FEET WITH NO
SIGNIFICANT WEATHER AND/OR OBSTRUCTIONS TO VISIBILITY.

KSZ001>006-013>018-027>032-041>047-012000-
NORTHWEST KANSAS

CITY           SKY/WX    TMP DP  RH WIND       PRES   REMARKS
GOODLAND       MOSUNNY   87  54  32 SW6       29.99F
HAYS           SUNNY     95  61  31 SW17      29.91F HX  95
HILL CITY      SUNNY     91  59  33 VRB5      29.92F
RUSSELL        SUNNY     96  59  29 S24G31    29.90F HX  95
$$

KSZ061>065-074>080-084>089-012000-
SOUTHWEST KANSAS

CITY           SKY/WX    TMP DP  RH WIND       PRES   REMARKS
DODGE CITY     MOSUNNY   90  57  32 S18G24    29.98F
ELKHART          N/A     90  58  34 SE10        N/A
GARDEN CITY    MOSUNNY   87  58  37 SW5       29.98F
GREAT BEND     SUNNY     95  61  31 S23G29    29.92F HX  95
LIBERAL        MOSUNNY   93  57  29 S20       30.00F
PRATT          SUNNY     93  55  27 MISG      29.97F
$$

KSZ066>073-081>083-090>101-012000-
SOUTHEAST KANSAS

CITY           SKY/WX    TMP DP  RH WIND       PRES   REMARKS
CHANUTE        SUNNY     87  68  52 S16       30.04F
COFFEYVILLE    SUNNY     87  68  52 S12       30.03F
HUTCHINSON     SUNNY     93  63  36 S18G29    29.96F
MEDICINE LODGE   N/A     95  60  31 S17G26    29.94F HX  95
NEWTON         SUNNY     91  64  40 S20       30.01F
PARSONS        SUNNY     87  69  54 SE10G16   30.05F
WICHITA INTL   MOSUNNY   93  63  36 S17       29.97F
WICHITA JABRA  SUNNY     89  67  47 S17       29.99F
WICHITA MCCONL SUNNY     91  64  41 S14G23    29.99F
WINFIELD       SUNNY     92  65  40 S15G22    30.00F
$$

KSZ007>012-019>026-033>040-048>060-102>105-012000-
NORTHEAST KANSAS

CITY           SKY/WX    TMP DP  RH WIND       PRES   REMARKS
CONCORDIA      MOSUNNY   91  63  39 S20G30    29.93F
EMPORIA        SUNNY     88  64  44 S18G25    30.00F
LAWRENCE       MOSUNNY   90  69  50 S18       30.00F
MANHATTAN      SUNNY     93  66  40 SW17G24   29.95F HX  96
MARYSVILLE     MOSUNNY  N/A N/A N/A SW14      29.95F
OLATHE IND     SUNNY     87  69  54 S16G22    30.04S
OLATHE EXE     SUNNY     85  69  58 S13       30.03S
SALINA         MOSUNNY   94  63  35 S18G29    29.93F HX  95
TOPEKA BILLARD MOSUNNY   90  66  45 S13       29.98F
TOPEKA FORBES  SUNNY     90  67  46 S13       29.99F
$$


USA.gov is the U.S. government's official web portal to all federal, state and local government web resources and services.